Location: Eastchurch
(51.4000°N, 0.8667°E)
Time: 19:41:57
(UTC+00:00)

Cosmos 1503 Rocket - Pass Details

Date: 19 January 2026
Orbit: 748 x 786 km, 74.0° (Epoch: 15 February)

Event Time Altitude Azimuth Distance (km) Brightness Sun altitude
Rises 19:28:56 0° 334° (NNW) 3,229 7.6 -28.3°
Reaches altitude 10° 19:31:18 10° 333° (NNW) 2,304 6.8 -28.7°
Enters shadow 19:35:40 61° 312° (NW) 869 4.3 -29.3°
